[[{"header":{"parameterUnit":"m.s-1","parameterCategory":1,"la1":30.2991,"la2":30.254,"lo1":-89.0895,"lo2":-89.0444,"dy":0.0017,"dx":0.0017,"nx":28,"ny":28,"refTime":"2023-10-07T03:00:00:Z","depth":0,"parameterNumber":2,"parameterNumberName":"U-component_of_WINDS"},"data":[0,0,0,0,0,0,0,0,0,0,0,0,0,0,0,0,0,0,0,0,0,0,0,0,0,0,0,0,0,0,0,0,0,0,0,0,0,0,0,0,0,0,0,0,0,0,0,0,0,0,0,0,0,0,0,0,0,0,-0.3727,-0.3728,0,-0.3848,-0.3849,-0.3851,-0.3951,-0.3952,-0.3953,-0.3954,-0.4076,-0.4078,-0.408,0,0,0,0,0,0,0,0,0,0,0,0,0,-0.3578,-0.358,-0.3727,-0.3728,-0.373,-0.3848,-0.385,-0.3851,-0.3951,-0.3952,-0.3953,-0.3954,-0.4075,-0.4078,-0.408,0,0,0,0,0,0,0,0,0,0,0,0,0,-0.3665,-0.3581,-0.3726,-0.3794,-0.3801,-0.3848,-0.385,-0.3852,-0.395,-0.3952,-0.3953,-0.3955,-0.4074,-0.4077,-0.4081,-0.407,0,0,-0.4091,-0.4093,0,0,0,0,0,0,0,0,-0.366,-0.367,-0.3782,-0.3789,-0.3797,-0.3886,-0.3842,-0.3925,-0.395,-0.3893,-0.3954,-0.3956,-0.4011,-0.402,-0.4039,-0.4076,-0.4081,-0.4091,-0.4093,-0.4095,-0.4096,0,0,0,0,0,0,0,-0.3654,-0.3666,-0.3775,-0.3784,-0.3793,-0.3817,-0.3831,-0.3858,-0.3942,-0.3898,-0.3906,-0.3919,-0.4016,-0.4035,-0.4043,-0.4083,-0.4091,-0.4094,-0.4096,-0.4098,-0.4115,-0.4113,0,0,0,0,0,0,-0.3638,-0.366,-0.3771,-0.3778,-0.3731,-0.3818,-0.3834,-0.3856,-0.3942,-0.3957,-0.3918,-0.3923,-0.4029,-0.4039,-0.4047,-0.4039,-0.4095,-0.4098,-0.41,-0.4116,-0.4114,-0.4113,0,0,0,0,0,0,-0.3634,-0.3647,-0.3766,-0.3721,-0.3738,-0.3819,-0.3843,-0.3857,-0.3878,-0.3956,-0.3972,-0.3923,-0.4031,-0.4042,-0.4063,-0.4045,-0.41,-0.4103,-0.4118,-0.4116,-0.4113,-0.4024,0,0,0,0,0,0,-0.363,-0.3645,-0.3642,-0.3721,-0.374,-0.3781,-0.3842,-0.3859,-0.3883,-0.3892,-0.3965,-0.3979,-0.4033,-0.4058,-0.4067,-0.4051,-0.4105,-0.412,-0.4117,-0.4114,-0.4029,-0.4018,-0.401,0,0,0,0,0,-0.3624,-0.3612,-0.3642,-0.3655,-0.3739,-0.378,-0.3791,-0.3854,-0.3882,-0.3879,-0.3929,-0.3977,-0.4045,-0.4059,-0.407,-0.4055,-0.4122,-0.4118,-0.4114,-0.4033,-0.402,-0.401,0,0,0,0,0,0,-0.353,-0.3624,-0.3658,-0.3671,-0.3716,-0.3796,-0.3795,-0.3839,-0.3877,-0.3883,-0.3959,-0.3974,-0.3986,-0.4023,-0.4036,-0.4048,-0.409,-0.4088,-0.4024,-0.4013,-0.4003,-0.3994,-0.4108,0,0,0,0,0,-0.351,-0.3536,-0.3617,-0.3621,-0.3642,-0.3714,-0.3734,-0.3779,-0.3828,-0.3848,-0.39,-0.3946,-0.3978,-0.3997,-0.4031,-0.4034,-0.4051,-0.4029,-0.4019,-0.4011,-0.4009,-0.4012,-0.4003,-0.4101,-0.4101,-0.4101,0,0,-0.3471,-0.3526,-0.3537,-0.3603,-0.3644,-0.3667,-0.373,-0.3753,-0.3771,-0.3851,-0.3874,-0.3914,-0.397,-0.3981,-0.3989,-0.4012,-0.3985,-0.4007,-0.4,-0.4002,-0.4007,-0.3998,-0.3989,-0.4099,-0.4099,-0.4099,0,0,-0.3411,-0.3455,-0.3463,-0.3502,-0.3563,-0.3611,-0.3612,-0.3685,-0.3715,-0.3739,-0.3799,-0.3821,-0.3875,-0.3912,-0.3938,-0.389,-0.3934,-0.3899,-0.385,-0.3851,-0.3844,-0.3837,-0.3819,-0.3812,-0.3896,-0.3896,-0.3896,0,-0.3354,-0.3394,-0.3461,-0.3481,-0.3507,-0.3581,-0.3588,-0.3623,-0.3691,-0.3707,-0.3732,-0.38,-0.3843,-0.3863,-0.3851,-0.387,-0.3873,-0.3891,-0.384,-0.3834,-0.3829,-0.3812,-0.3805,-0.3891,-0.3892,-0.3892,-0.3893,0,-0.332,-0.3346,-0.3345,-0.3409,-0.3435,-0.3448,-0.3517,-0.3535,-0.3576,-0.3621,-0.3644,-0.3698,-0.3743,-0.3751,-0.3792,-0.3777,-0.3789,-0.3826,-0.3869,-0.3813,-0.3799,-0.3793,-0.3884,-0.3886,-0.3888,-0.3889,0,0,-0.3206,-0.3306,-0.3304,-0.3333,-0.3405,-0.3426,-0.3441,-0.3486,-0.35,-0.3543,-0.3558,-0.36,-0.3634,-0.3663,-0.3709,-0.371,-0.3667,-0.3747,-0.3749,-0.3729,-0.3652,-0.3624,-0.3616,-0.3697,-0.3696,-0.3695,-0.3647,0,-0.3157,-0.319,-0.3251,-0.3264,-0.3288,-0.3358,-0.3371,-0.3415,-0.3457,-0.3482,-0.3529,-0.3557,-0.36,-0.3618,-0.3623,-0.3671,-0.3653,-0.3676,-0.371,-0.371,-0.3693,-0.3609,-0.3579,-0.3531,-0.3642,-0.3641,-0.3641,0,-0.3106,-0.3145,-0.316,-0.3229,-0.3241,-0.3252,-0.3297,-0.3321,-0.3372,-0.3402,-0.3433,-0.3483,-0.3502,-0.3541,-0.3567,-0.3581,-0.3598,-0.3624,-0.3624,-0.3629,-0.3672,-0.3611,-0.3518,-0.351,-0.3633,-0.3633,-0.3634,0,-0.3019,-0.3076,-0.3093,-0.3116,-0.3196,-0.3201,-0.3235,-0.3288,-0.331,-0.3349,-0.3364,-0.3404,-0.3426,-0.3455,-0.3514,-0.3537,-0.3532,-0.3577,-0.3557,-0.3555,-0.3553,-0.3552,-0.346,-0.3564,-0.3564,-0.3564,-0.3565,0,-0.2958,-0.2965,-0.3055,-0.3065,-0.3073,-0.3142,-0.3148,-0.3188,-0.3234,-0.3252,-0.3314,-0.3329,-0.3406,-0.343,-0.3475,-0.3489,-0.3498,-0.3522,-0.3534,-0.3517,-0.3513,-0.3529,-0.3533,-0.3563,-0.3563,-0.3563,-0.3564,0,-0.2864,-0.2925,-0.2947,-0.302,-0.3039,-0.3042,-0.3104,-0.3116,-0.3161,-0.3182,-0.3191,-0.3262,-0.3293,-0.3354,-0.3402,-0.3432,-0.3435,-0.3456,-0.3418,-0.3425,-0.3401,-0.3402,-0.3316,-0.3307,-0.3416,-0.3415,-0.3414,0,-0.2821,-0.2828,-0.2902,-0.2918,-0.2949,-0.2975,-0.2998,-0.3065,-0.3086,-0.3144,-0.3148,-0.3184,-0.3216,-0.3262,-0.3316,-0.3353,-0.3375,-0.3342,-0.3381,-0.3363,-0.3374,-0.3372,-0.3373,-0.3334,-0.3332,-0.3331,-0.333,0,-0.2738,-0.2768,-0.2799,-0.284,-0.2865,-0.2901,-0.294,-0.2949,-0.3025,-0.3045,-0.3078,-0.3102,-0.3151,-0.3185,-0.3229,-0.3263,-0.3308,-0.3317,-0.3314,-0.3296,-0.3273,-0.3284,-0.3393,-0.3319,-0.332,-0.3321,-0.3321,-0.3322,-0.2669,-0.2677,-0.273,-0.2762,-0.2798,-0.2832,-0.2846,-0.2892,-0.292,-0.2965,-0.3003,-0.3031,-0.308,-0.3144,-0.3175,-0.3197,-0.3219,-0.3215,-0.3214,-0.3212,-0.3204,-0.3269,-0.3206,-0.3206,-0.3206,-0.3207,-0.3207,0,-0.2588,-0.2625,-0.2654,-0.2706,-0.273,-0.2771,-0.2815,-0.2833,-0.2858,-0.29,-0.293,-0.2966,-0.2999,-0.3056,-0.3093,-0.31,-0.3122,-0.3107,-0.3107,-0.3114,-0.3183,-0.3181,-0.3089,-0.3089,-0.3089,-0.3089,-0.3089,-0.3089,-0.255,-0.2565,-0.26,-0.2634,-0.2671,-0.27,-0.2721,-0.2753,-0.2786,-0.2824,-0.2852,-0.2888,-0.2936,-0.2977,-0.3008,-0.3024,-0.3034,-0.3013,-0.3035,-0.3098,-0.3109,-0.312,-0.3119,-0.3015,-0.3015,-0.2965,-0.2964,-0.2964]},{"header":{"parameterUnit":"m.s-1","parameterCategory":1,"la1":30.2991,"la2":30.254,"lo1":-89.0895,"lo2":-89.0444,"dy":0.0017,"dx":0.0017,"nx":28,"ny":28,"refTime":"2023-10-07T03:00:00:Z","depth":0,"parameterNumber":3,"parameterNumberName":"V-component_of_WINDS"},"data":[0,0,0,0,0,0,0,0,0,0,0,0,0,0,0,0,0,0,0,0,0,0,0,0,0,0,0,0,0,0,0,0,0,0,0,0,0,0,0,0,0,0,0,0,0,0,0,0,0,0,0,0,0,0,0,0,0,0,-1.7925,-1.7926,0,-1.8003,-1.8004,-1.8005,-1.8003,-1.8002,-1.8001,-1.8,-1.808,-1.8083,-1.8086,0,0,0,0,0,0,0,0,0,0,0,0,0,-1.7775,-1.7778,-1.7925,-1.7926,-1.7927,-1.8003,-1.8004,-1.8005,-1.8003,-1.8002,-1.8001,-1.8,-1.8079,-1.8083,-1.8087,0,0,0,0,0,0,0,0,0,0,0,0,0,-1.7845,-1.7779,-1.7925,-1.7935,-1.7937,-1.8002,-1.8004,-1.8005,-1.8004,-1.8002,-1.8,-1.7999,-1.8078,-1.8083,-1.8087,-1.8147,0,0,-1.8101,-1.8103,0,0,0,0,0,0,0,0,-1.7841,-1.7851,-1.7933,-1.7935,-1.7937,-1.7992,-1.798,-1.8053,-1.8004,-1.7978,-1.8,-1.7998,-1.8052,-1.8059,-1.8077,-1.8151,-1.8155,-1.8102,-1.8105,-1.8107,-1.8108,0,0,0,0,0,0,0,-1.7836,-1.7847,-1.7956,-1.7934,-1.7937,-1.7936,-1.7944,-1.7994,-1.8023,-1.7981,-1.7981,-1.799,-1.8053,-1.8072,-1.8079,-1.8156,-1.8102,-1.8106,-1.8109,-1.8111,-1.8282,-1.8283,0,0,0,0,0,0,-1.7829,-1.7843,-1.7953,-1.7958,-1.7884,-1.794,-1.7949,-1.7976,-1.8023,-1.8028,-1.7991,-1.7989,-1.8065,-1.8073,-1.8081,-1.8154,-1.8107,-1.8111,-1.8114,-1.828,-1.8282,-1.8284,0,0,0,0,0,0,-1.7826,-1.7839,-1.795,-1.7901,-1.7915,-1.7944,-1.7974,-1.7978,-1.7997,-1.8031,-1.8036,-1.8006,-1.8064,-1.8075,-1.8131,-1.8156,-1.8113,-1.8117,-1.8278,-1.8281,-1.8283,-1.8299,0,0,0,0,0,0,-1.7822,-1.7838,-1.7861,-1.7901,-1.7918,-1.7998,-1.7976,-1.7981,-1.8005,-1.8004,-1.8045,-1.8051,-1.8064,-1.8124,-1.8135,-1.8162,-1.8121,-1.8276,-1.8279,-1.8282,-1.8297,-1.8302,-1.8307,0,0,0,0,0,-1.7817,-1.7863,-1.7863,-1.7876,-1.7947,-1.8,-1.8009,-1.8023,-1.8008,-1.8031,-1.8052,-1.805,-1.8152,-1.8129,-1.8142,-1.8171,-1.8274,-1.8278,-1.8282,-1.8294,-1.8301,-1.8307,0,0,0,0,0,0,-1.7826,-1.7869,-1.7868,-1.7929,-1.7961,-1.7999,-1.8029,-1.803,-1.8066,-1.8063,-1.8079,-1.8088,-1.8144,-1.8163,-1.8137,-1.8231,-1.8211,-1.8218,-1.8216,-1.8223,-1.8228,-1.8221,-1.8125,0,0,0,0,0,-1.7835,-1.7874,-1.7909,-1.796,-1.7975,-1.8,-1.8023,-1.8031,-1.8064,-1.8077,-1.8103,-1.8135,-1.8174,-1.82,-1.8238,-1.83,-1.8308,-1.8326,-1.8331,-1.8335,-1.834,-1.8373,-1.8381,-1.8297,-1.8297,-1.8297,0,0,-1.7854,-1.7882,-1.7906,-1.7962,-1.7987,-1.8027,-1.8011,-1.8054,-1.8083,-1.8084,-1.8137,-1.8157,-1.8194,-1.8253,-1.828,-1.8271,-1.8366,-1.834,-1.8343,-1.8346,-1.8378,-1.8386,-1.8393,-1.83,-1.8299,-1.8299,0,0,-1.7909,-1.7935,-1.7979,-1.8004,-1.8043,-1.8058,-1.8069,-1.8107,-1.812,-1.8174,-1.8175,-1.8211,-1.8279,-1.8304,-1.8326,-1.8391,-1.8389,-1.8403,-1.8429,-1.8461,-1.8468,-1.8473,-1.8495,-1.8503,-1.8408,-1.8408,-1.8408,0,-1.7928,-1.7987,-1.8002,-1.8044,-1.8068,-1.8071,-1.8115,-1.8139,-1.8188,-1.8205,-1.8194,-1.8278,-1.8304,-1.8368,-1.8383,-1.8402,-1.8413,-1.8397,-1.8466,-1.8472,-1.8477,-1.8498,-1.8506,-1.8409,-1.8409,-1.8409,-1.8409,0,-1.8008,-1.8049,-1.808,-1.8127,-1.8155,-1.8198,-1.8218,-1.8245,-1.825,-1.8267,-1.8321,-1.8352,-1.8396,-1.8412,-1.8418,-1.8476,-1.8469,-1.8462,-1.8442,-1.8486,-1.8506,-1.8514,-1.8411,-1.8411,-1.841,-1.841,0,0,-1.807,-1.8123,-1.8134,-1.8155,-1.8197,-1.8229,-1.8272,-1.8315,-1.8337,-1.8371,-1.8406,-1.8464,-1.8457,-1.8482,-1.8491,-1.8519,-1.8566,-1.8508,-1.8509,-1.8516,-1.863,-1.8634,-1.8643,-1.8566,-1.8567,-1.8569,-1.8627,0,-1.8128,-1.8204,-1.8218,-1.8284,-1.8322,-1.8325,-1.8362,-1.8392,-1.8409,-1.8443,-1.8462,-1.8502,-1.849,-1.8505,-1.8533,-1.8554,-1.8589,-1.855,-1.8598,-1.86,-1.8587,-1.8654,-1.8659,-1.8712,-1.8635,-1.8636,-1.8637,0,-1.8206,-1.824,-1.831,-1.8346,-1.8363,-1.8396,-1.8435,-1.8469,-1.8502,-1.8512,-1.854,-1.8546,-1.859,-1.857,-1.8631,-1.8604,-1.8625,-1.8638,-1.8641,-1.8644,-1.862,-1.8658,-1.8729,-1.8737,-1.8649,-1.8648,-1.8648,0,-1.8242,-1.8306,-1.8356,-1.8374,-1.8418,-1.8441,-1.846,-1.8492,-1.8516,-1.8551,-1.8567,-1.8607,-1.8628,-1.8659,-1.8675,-1.8658,-1.8734,-1.8715,-1.8743,-1.8743,-1.8758,-1.8756,-1.8832,-1.8774,-1.8774,-1.8774,-1.8774,0,-1.8304,-1.8346,-1.8372,-1.8403,-1.845,-1.8466,-1.8512,-1.8531,-1.856,-1.8594,-1.8599,-1.8631,-1.8651,-1.8686,-1.8699,-1.8747,-1.8757,-1.8766,-1.8769,-1.8765,-1.8763,-1.8777,-1.8773,-1.8776,-1.8775,-1.8775,-1.8775,0,-1.8351,-1.8371,-1.8425,-1.8462,-1.8472,-1.8505,-1.8537,-1.8566,-1.8583,-1.8626,-1.8637,-1.8663,-1.8704,-1.8724,-1.8775,-1.8784,-1.8838,-1.8839,-1.8826,-1.8827,-1.8853,-1.885,-1.8939,-1.8951,-1.8886,-1.8887,-1.8888,0,-1.8389,-1.8421,-1.8461,-1.8484,-1.8504,-1.8541,-1.8566,-1.8582,-1.8608,-1.8648,-1.8672,-1.8714,-1.8747,-1.8813,-1.8836,-1.8875,-1.8876,-1.8905,-1.8882,-1.8877,-1.8875,-1.8872,-1.8875,-1.8909,-1.8909,-1.891,-1.891,0,-1.8453,-1.8461,-1.8496,-1.8534,-1.8563,-1.8594,-1.8625,-1.8643,-1.8665,-1.8693,-1.8734,-1.876,-1.8812,-1.8853,-1.8893,-1.8913,-1.8915,-1.8918,-1.8926,-1.8921,-1.8911,-1.8915,-1.8835,-1.8915,-1.8915,-1.8914,-1.8914,-1.8914,-1.8495,-1.8524,-1.8556,-1.8594,-1.8619,-1.8647,-1.8676,-1.8697,-1.8732,-1.8774,-1.8783,-1.8826,-1.8859,-1.8913,-1.8935,-1.8969,-1.8963,-1.8975,-1.8978,-1.898,-1.8981,-1.8907,-1.8977,-1.8977,-1.8977,-1.8977,-1.8977,0,-1.8558,-1.8579,-1.8614,-1.8656,-1.8686,-1.8686,-1.8719,-1.8744,-1.8783,-1.8813,-1.8846,-1.8893,-1.8932,-1.8959,-1.8999,-1.9021,-1.9023,-1.9031,-1.9029,-1.9033,-1.8985,-1.8973,-1.9029,-1.9029,-1.9029,-1.9029,-1.9029,-1.9029,-1.8594,-1.8641,-1.8653,-1.8712,-1.8733,-1.8776,-1.8795,-1.8821,-1.8844,-1.8897,-1.8929,-1.8946,-1.8975,-1.9017,-1.9053,-1.906,-1.9073,-1.9081,-1.9087,-1.9042,-1.9037,-1.9031,-1.902,-1.9084,-1.9084,-1.9132,-1.9132,-1.9133]}]]